Portada
METAR-TAF:

METAR-TAF

Aeroports :

Groote Eylandt, Austràlia

latitud: 13-58-30S, longitud: 136-27-36E, altitud: 16 m

Observació

L'informe es va fer fa 51 minuts, a les 21:00 UTC
Vent 2 kt del Est/Nord-Est
Temperatura 26°C
Humitat 89%
Pressió 1007 hPa
Visibilitat 10 km o més

METAR: YGTE 112100Z AUTO 07002KT 9999 // NCD 26/24 Q1007

Hora: 07:21 (21:51 UTC)


TAF: manca

Observacions i pronòstics meteorològics de més de 4000 aeroports (METAR i TAF).

Les estacions disponibles són els punts grocs i vermells al mapa.

Posi el ratolí al punt desitjat per veure el nom de l'estació.

Feu clic per veure les observacions i els pronòstics meteorològics.

Per canviar el mapa: feu clic els botons verds amb una creu de color negre per apropar; al botó verd amb un guió per allunyar la imatge; o en les fletxes verdes per a mapes adjacents.


METAR-TAF: